www.pogodaiklimat.ru

ПОГОДА в Порт Хоуп, MI

  • Прогноз погоды в Порт Хоуп
  • Монитор погоды в Порт Хоуп
  • Климат в Порт Хоуп

АРХИВ ПОГОДЫ в Порт Хоуп

Время (UTC), дата Ветер
(напр.,м/с)
 
Видим.   Явления Облачность Т
(С)
Тd
(С)
f
(%)
Тe
(С)
Тes
(С)
Комфортность

P
(гПа)

Po
(гПа)
Тmin
(С)
Tmax
(С)
R
(мм)
SD
(см)
23:51 24.03 С  н/о    н/о  0.0  -2.8  81  -8  -8    1021.6  999.1         
00:51 25.03 С  н/о    н/о  0.0  -3.9  75  -8  -8    1022.5  1000.0         
01:51 25.03 СВ  н/о    н/о  0.0  -3.9  75  -7  -7    1022.9  1000.4         
02:51 25.03 СВ  н/о    н/о  0.0  -3.3  78  -7  -7    1022.8  1000.4         
03:51 25.03 С  н/о    н/о  +0.6  -4.4  69  -6  -6    1023.3  1001.0         
04:51 25.03 СВ  н/о    н/о  0.0  -5.0  69  -7  -7    1023.2  1000.7  0.0  +0.6     
05:51 25.03 С  н/о    н/о  0.0  -5.0  69  -7  -7    1023.8  1001.4         
06:51 25.03 С  н/о    н/о  0.0  -3.9  75  -7  -7    1024.0  1001.4         
07:51 25.03 С  н/о    н/о  -0.6  -3.9  78  -8  -8    1024.3  1001.7         
08:51 25.03 С  н/о    н/о  0.0  -4.4  72  -7  -7    1024.7  1002.0         
09:51 25.03 СВ  н/о    н/о  0.0  -6.7  61  -8  -8    1025.2  1002.4         
10:51 25.03 СВ  н/о    н/о  -0.6  -8.3  56  -8  -8    1025.6  1002.7  -0.6  +0.6     
11:51 25.03 СВ  н/о    н/о  -1.1  -8.9  55  -9  -9    1026.5  1003.7         
12:51 25.03 СВ  н/о    н/о  -1.1  -10.0  51  -8  -8    1027.3  1004.4         
13:51 25.03 СВ  н/о    н/о  -0.6  -9.4  51  -7  -7    1027.0  1004.0         
14:51 25.03 С  н/о    н/о  -0.6  -10.6  47  -7  -7    1027.0  1004.4         
15:51 25.03 С  н/о    н/о  0.0  -10.6  45  -5  -5    1027.0  1004.4         
16:51 25.03 С  н/о    н/о  0.0  -11.1  43  -5  -5    1026.8  1004.0  -1.1  0.0     
17:51 25.03 С  н/о    н/о  0.0  -10.0  47  -5  -5    1026.4  1003.7         
18:51 25.03 С  н/о    н/о  0.0  -9.4  49  -5  -5    1026.0  1003.4         
19:51 25.03   н/о    н/о  0.0  -11.1  43  -0  -0    1025.9  1003.0         
20:51 25.03 С  н/о    н/о  0.0  -10.6  45  -4  -4    1025.7  1003.0         
21:51 25.03 С  н/о    н/о  -0.6  -10.6  47  -4  -4    1025.9  1003.0         
22:51 25.03   н/о    н/о  -1.7  -10.0  53  -2  -2    1025.9  1003.0  -1.7  +0.6     
23:51 25.03   н/о    н/о  -2.8  -8.9  63  -3  -3    1026.2  1003.4         
00:51 26.03 З  н/о    н/о  -3.9  -8.3  71  -7  -7    1027.0  1004.0         
01:51 26.03 З  н/о    н/о  -3.9  -8.3  71  -7  -7    1027.3  1004.4         
02:51 26.03 З  н/о    н/о  -2.8  -8.9  63  -8  -8    1027.5  1004.4         
03:51 26.03 С  5
{9} 
н/о    н/о  0.0  -8.9  51  -6  -6    1027.9  1005.0         
04:51 26.03 С  н/о    н/о  -0.6  -6.7  63  -6  -6    1028.0  1005.0  -3.9  0.0     
05:51 26.03 С  4
{8} 
н/о    н/о  -1.1  -7.8  60  -7  -7    1028.7  1005.7         
06:51 26.03 С  6
{10} 
н/о    н/о  -1.1  -6.7  66  -8  -8    1028.8  1006.0         
07:51 26.03 С  н/о    н/о  -1.1  -6.1  69  -8  -8    1028.7  1005.7         
08:51 26.03 С  н/о    н/о  -0.6  -6.1  66  -7  -7    1029.2  1006.3         
09:51 26.03 С  н/о    н/о  -0.6  -6.1  66  -7  -7    1030.1  1007.0         
10:51 26.03 С  н/о    н/о  -0.6  -6.1  66  -6  -6    1030.7  1007.7  -1.1  -0.6     
11:51 26.03 СВ  н/о    н/о  0.0  -6.1  63  -5  -5    1031.6  1008.7         
12:51 26.03 СВ  н/о    н/о  +0.6  -6.1  61  -3  -3    1032.2  1009.0         
13:51 26.03 В  н/о    н/о  +0.6  -6.1  61  -2  -2    1032.7  1009.7         
14:51 26.03 СВ  н/о    н/о  +0.6  -5.6  63  -3  -3    1032.9  1010.0         
15:51 26.03 СВ  н/о    н/о  +1.1  -5.6  61  -2  -2    1032.9  1010.0         
16:51 26.03 СВ  н/о    н/о  +1.7  -5.6  58  -2  -2    1032.8  1010.0  -0.6  +1.7     
17:51 26.03 С  н/о    н/о  +1.7  -5.0  61  -2  -2    1032.3  1009.3         
18:51 26.03 СВ  н/о    н/о  +1.7  -5.0  61  -2  -2    1031.9  1009.0         
19:51 26.03 В  н/о    н/о  +1.1  -5.0  64  -3  -3    1031.5  1008.7         
20:51 26.03 ЮВ  н/о    н/о  +1.1  -5.0  64  -4  -4    1030.9  1008.0         
21:51 26.03 ЮВ  н/о    н/о  +1.1  -5.0  64  -3  -3    1030.8  1008.0         
22:51 26.03 ЮВ  н/о    н/о  +0.6  -5.6  63  -4  -4    1030.3  1007.3  +0.6  +2.2     

 

Местоположение метеостанции Port Hope: широта 44.0219 долгота -82.7931 высота над уровнем моря 179 м.

В архиве по умолчанию представлена погода в Порт Хоуп за последние 1-2 суток. Обновление информации о фактической погоде в базе происходит ежечасно! Архивные данные за месяц целиком и за предыдущие месяцы Вы можете получить, выбрав интересующий диапазон дат из раскрывающегося списка и нажав кнопку "Ввод!".

Внимание! Архив погоды МЕТАР в базе сайта хранится не более 60 дней. Нет смысла пытаться выбрать более раннюю дату.

Внимание! Время в таблицах - всемирное. Для получения местного времени необходимо прибавить поправку, которая в Порт Хоуп равна -5 ч.

Ветер - указаны скорость ветра в м/с и направление, откуда дует ветер: С - северный, СВ - северо-восточный, В - восточный, ЮВ - юго-восточный, Ю - южный, ЮЗ - юго-западный, З - западный, СЗ - северо-западный.
Видимость - горизонтальная дальность видимости в метрах или километрах. При видимости от 1 до 10 км при отсутствии осадков обычно наблюдается дымка, при ухудшении видимости до 1 км и менее - туман. В сухую погоду видимость может ухудшаться дымом, пылью или мглою.
Атмосферные явления - указаны явления, наблюдавшиеся в указанный момент времени.
Облачность - указаны через наклонную черту верхняя и нижняя облачность в баллах и высота нижней границы облаков в метрах. Внимание: облачность, как и прочие метеорологические величины в США измеряются автоматическими метеостанциями. Указанные значения в баллах носят условный характер и показывают процент времени, в течение которого, в среднем, лазерный луч высотомера отражался от облаков обратно.
T - Температура воздуха - температура, измеренная на высоте 2 м над землей.
Td - Температура точки росы - температура, при понижении до которой содержащийся в воздухе водяной пар достигнет насыщения.
f - Относительная влажность воздуха - влажноcть воздуха, измеренная на высоте 2 м над землей.
Te - Эффективная температура - температура, которую ощущает одетый по сезону человек в тени. Характеристика душности погоды. При расчете учитывается влияние влажности воздуха и скорости ветра на теплоощущения человека.
Tes - Эффективная температура на солнце - температура, которую ощущает человек, с поправкой на солнечный нагрев. Характеристика знойности погоды. Зависит от высоты солнца над горизонтом, облачности и скорости ветра. Ночью, в пасмурную погоду, а также при ветре 12 м/с и более поправка равна нулю.
P - Атмосферное давление - приведенное к уровню моря атмосферное давление.
Po - Атмосферное давление - измеренное на уровне метеостанции атмосферное давление.
Tmin - Минимальная температура - минимум температуры воздуха на высоте 2 м над землей.
Tmax - Максимальная температура - максимум температуры воздуха на высоте 2 м над землей.
R - Количество осадков - Количество выпавших осадков за 3 или 6 часов, мм.
SD - Снежный покров - Высота снежного покрова, см.